Weather observations for the past three days for
Burbank - Bob Hope Airport
Imperial (Metric)
Date Time (pdt) Wind (mph) Vis. (mi.) Weather Sky Cond. Temperature (ºF) Relative Humidity Wind Chill (°F) Heat Index (°F) Pressure Precipitation (in)
Air Dwpt 6 hour altimeter (in) sea level (mb) 1 hr 3 hr 6 hr
Max. Min.
18 12:53 S 9 10.00 Fair CLR 84 63 49% 85 29.98 1013.7
18 11:53 E 10 10.00 Fair CLR 82.9 63 51% 84 29.98 1013.7
18 10:53 SE 9 10.00 Fair CLR 80.1 61 80.1 68 52% 81 29.98 1013.7
18 09:53 S 3 10.00 Fair CLR 75 60.1 60% 77 29.98 1013.8
18 08:53 SE 5 10.00 Fair CLR 72 59 64% 29.98 1013.9
18 07:53 Vrbl 3 10.00 Fair CLR 70 59 68% 29.97 1013.7
18 06:53 SE 5 10.00 Fair CLR 68 59 73% 29.96 1013.1
18 05:53 S 5 10.00 Fair CLR 68 59 73% 29.95 1012.8
18 04:53 SE 5 10.00 Fair CLR 68 57.9 69.1 68 70% 29.94 1012.6
18 03:53 SE 5 10.00 Fair CLR 69.1 57 66% 29.94 1012.5
18 02:53 SE 6 10.00 Fair CLR 69.1 57.9 68% 29.94 1012.6
18 01:53 SE 3 10.00 Fair CLR 69.1 57.9 68% 29.95 1012.9
18 00:53 S 3 10.00 Fair CLR 68 57.9 70% 29.95 1013.0
17 23:53 SE 6 10.00 Fair CLR 68 57.9 70% 29.96 1013.3
17 22:53 E 9 10.00 Fair CLR 69.1 57.9 86 68 68% 29.95 1012.9
17 21:53 E 10 10.00 Fair CLR 70 57 64% 29.94 1012.6
17 20:53 E 10 10.00 Fair CLR 73.9 57.9 57% 29.93 1012.1
17 19:53 SE 9 10.00 Fair CLR 78.1 60.1 54% 79 29.9 1011.3
17 18:53 SE 10 G 21 10.00 Fair CLR 81 62.1 53% 82 29.89 1010.9
17 17:53 S 9 10.00 Fair CLR 84 62.1 48% 85 29.88 1010.5
17 16:53 S 8 10.00 Fair CLR 86 63 89.1 75 46% 87 29.89 1010.6
17 15:53 S 10 10.00 Fair CLR 84.9 63 48% 86 29.91 1011.3
17 14:53 SE 7 10.00 Fair CLR 88 62.1 42% 88 29.93 1012.0
17 13:53 SE 7 10.00 Fair CLR 82.9 61 48% 83 29.95 1012.7
17 12:53 SE 7 10.00 Fair CLR 79 60.1 52% 80 29.98 1013.8
17 11:53 Vrbl 5 10.00 Fair CLR 79 61 54% 80 29.99 1014.3
17 10:53 Calm 10.00 Fair CLR 75 60.1 75.9 64.9 60% 77 30 1014.5
17 09:53 Calm 10.00 Fair CLR 72 57.9 61% 29.99 1014.4
17 08:53 SE 5 10.00 Fair CLR 69.1 57.9 68% 30 1014.5
17 07:53 SE 7 10.00 Fair CLR 66.9 57.9 73% 29.99 1014.5
17 06:53 E 5 10.00 Fair CLR 66 57 73% 29.99 1014.2
17 05:53 Calm 10.00 Fair CLR 64.9 57 76% 29.97 1013.5
17 04:53 NE 5 10.00 Fair CLR 66 57 71.1 66 73% 29.96 1013.2
17 03:53 SE 6 10.00 Fair CLR 66 57 73% 29.95 1012.9
17 02:53 SE 5 10.00 Fair CLR 66.9 57.9 73% 29.95 1012.7
17 01:53 SE 9 10.00 Fair CLR 68 57.9 70% 29.94 1012.6
17 00:53 SE 6 10.00 Fair CLR 69.1 57 66% 29.95 1012.7
16 23:53 E 6 10.00 Fair CLR 69.1 57 66% 29.95 1012.7
16 22:53 SE 7 10.00 Fair CLR 71.1 53.1 82.9 71.1 53% 29.95 1012.8
16 21:53 E 10 G 18 10.00 Fair CLR 73 54 51% 29.94 1012.7
16 20:53 SE 8 10.00 Fair CLR 73.9 55.9 54% 29.93 1012.3
16 19:53 S 8 10.00 Fair CLR 75 55.9 52% 78 29.92 1012.1
16 18:53 S 8 10.00 Fair CLR 79 55.9 45% 80 29.92 1011.8
16 17:53 S 12 10.00 Fair CLR 81 55 41% 81 29.92 1011.9
16 16:53 S 9 10.00 Fair CLR 82 55.9 86 77 41% 82 29.93 1012.1
16 15:53 S 12 10.00 Fair CLR 82 57.9 44% 82 29.94 1012.7
16 14:53 SE 9 10.00 Fair CLR 84 59 43% 84 29.95 1012.9
16 13:53 SE 9 10.00 Fair CLR 84 60.1 44% 84 29.97 1013.4
16 12:53 S 8 10.00 Fair CLR 82.9 59 44% 83 29.99 1014.0
16 11:53 Vrbl 7 10.00 Fair CLR 81 61 51% 82 30 1014.6
16 10:53 SW 5 10.00 Fair CLR 77 61 77 64 58% 79 30.01 1015.0
16 09:53 Vrbl 5 10.00 Fair CLR 72 60.1 66% 30.02 1015.3
16 08:53 SE 8 G 17 10.00 Fair CLR 70 59 68% 30.03 1015.5
16 07:53 SE 3 10.00 Fair CLR 68 57.9 70% 30.01 1014.9
16 06:53 Calm 10.00 Fair CLR 66 59 78% 30 1014.6
16 05:53 NE 3 10.00 Fair CLR 64.9 57.9 78% 29.99 1014.2
16 04:53 E 6 10.00 Fair CLR 66 59 68 64.9 78% 29.98 1013.9
16 03:53 SE 6 10.00 Fair CLR 66 57.9 75% 29.97 1013.4
16 02:53 E 5 10.00 Fair CLR 66 57.9 75% 29.97 1013.6
16 01:53 E 7 10.00 Fair CLR 66.9 57.9 73% 29.98 1013.8
16 00:53 S 5 10.00 Fair CLR 66 57.9 75% 29.98 1014.0
15 23:53 E 8 10.00 Fair CLR 68 57 68% 29.99 1014.3
15 22:53 E 12 10.00 Fair CLR 68 57 82.9 68 68% 29.99 1014.3
15 21:53 E 10 10.00 Fair CLR 69.1 57 66% 29.98 1013.8
15 20:53 SE 9 10.00 Fair CLR 71.1 57.9 63% 29.95 1012.9
15 19:53 SE 10 10.00 Fair CLR 73.9 57.9 57% 29.93 1012.3
15 18:53 S 10 10.00 Fair CLR 77 57.9 52% 79 29.93 1012.1
15 17:53 S 10 10.00 Fair CLR 80.1 59 49% 81 29.93 1012.1
15 16:53 S 12 10.00 Fair CLR 82 61 87.1 77 49% 83 29.93 1012.0
15 15:53 S 12 10.00 Fair CLR 86 61 43% 86 29.93 1012.1
15 14:53 S 9 10.00 Fair CLR 87.1 62.1 43% 88 29.96 1013.0
15 13:53 S 5 10.00 Fair CLR 84.9 62.1 46% 85 29.98 1013.7
Date Time (pdt) Wind (mph) Vis. (mi.) Weather Sky Cond. Air Dwpt Max. Min. Relative Humidity Wind Chill (°F) Heat Index (°F) altimeter (in) sea level (mb) 1 hr 3 hr 6 hr
6 hour
Temperature (ºF) Pressure Precipitation (in)